User: anonymous   Login
Location: Unspecified
(0.0000°N, 0.0000°E)
Time: 01:30:21
(UTC+02:00)
Language:

NOAA 12 - Orbit

View from above orbital plane
View from above orbital plane
View from above satellite
View from above satellite

Ground track
Ground track

The orbit data is extracted from the following two-line orbital elements,

1 21263U 91032A   17115.87766741 +.00000016 +00000-0 +24818-4 0  9994
2 21263 098.5679 141.0855 0014928 076.2353 284.0488 14.25840299349019
Epoch (UTC): 25 April 2017 21:03:50
Eccentricity: 0.0014928
inclination: 98.5679°
perigee height: 795 km
apogee height: 816 km
right ascension of ascending node: 141.0855°
argument of perigee: 76.2353°
revolutions per day: 14.25840299
mean anomaly at epoch: 284.0488°
orbit number at epoch: 34901

The dashed part of the orbit path shows where the satellite is in the earth's shadow,  

DLR